sat.trackr.live / text

‹ back to catalog

STARLINK-5903

NORAD 55996 · 2023-042L

PAYLOAD ACTIVE UNKNOWN

§ Identity

Operator
Country
US
Launch date
2023-03-24
Launch site
AFETR
Launch vehicle
Mass (kg)
RCS (m²)

Purposes: comms

External: N2YO · Heavens-Above · Gunter

§ Orbital elements

Epoch: 2026-09-20T16:20:02.586336Z

Period
94.27 min
Inclination
43.0034°
Eccentricity
0.0001248
Mean motion
15.27575811 rev/d
Perigee alt
482.2 km
Apogee alt
483.9 km
Semi-major
6,861.2 km
B*
1.1005e-5
RAAN
38.1601°
Arg perigee
269.6440°
Mean anomaly
90.4269°
Rev number
19,268

§ Raw data

STARLINK-59031 55996U 23042L   26263.68058549  .00000041  00000+0  11005-4 0  99942 55996  43.0034  38.1601 0001248 269.6440  90.4269 15.27575811192683

JSON: /api/v1/satellites/55996 · /tle

For live sub-satellite position, see the globe view (requires WebGL).

§ Visibility from observer

Set your observer location to see the next 7 days of passes ≥ 10°. The values pass through the URL so the page stays shareable.

No JS? Fill the form by hand. The geolocation button needs JavaScript.